Time,TemperatureF,DewpointF,PressureIn,WindDirection,WindDirectionDegrees,WindSpeedMPH,WindSpeedGustMPH,Humidity,HourlyPrecipIn,Conditions,Clouds,dailyrainin,SoftwareType,DateUTC
2013-01-10 00:12:00,45.0,31.0,-100.00,West,270,8.0,17.0,59,-99.99,,,-99.99,,2013-01-10 05:12:00,
2013-01-10 00:33:00,44.0,31.0,-100.00,West,270,9.0,16.0,60,-99.99,,,-99.99,,2013-01-10 05:33:00,
2013-01-10 01:02:00,43.0,31.0,-100.00,West,270,9.0,14.0,61,-99.99,,,-99.99,,2013-01-10 06:02:00,
2013-01-10 01:12:00,43.0,31.0,-100.00,West,270,6.0,15.0,62,-99.99,,,-99.99,,2013-01-10 06:12:00,
2013-01-10 01:22:00,43.0,30.0,-100.00,West,265,9.0,17.0,61,-99.99,,,-99.99,,2013-01-10 06:22:00,
2013-01-10 01:32:00,43.0,30.0,-100.00,West,265,9.0,18.0,61,-99.99,,,-99.99,,2013-01-10 06:32:00,
2013-01-10 01:40:00,42.0,28.0,-100.00,West,275,6.0,14.0,57,-99.99,,,-99.99,,2013-01-10 06:40:00,
2013-01-10 01:42:00,43.0,30.0,-100.00,West,265,8.0,18.0,61,-99.99,,,-99.99,,2013-01-10 06:42:00,
2013-01-10 01:52:00,43.0,30.0,-100.00,West,270,8.0,15.0,60,-99.99,,,-99.99,,2013-01-10 06:52:00,
2013-01-10 02:02:00,42.0,30.0,-100.00,West,270,7.0,15.0,60,-99.99,,,-99.99,,2013-01-10 07:02:00,
2013-01-10 02:12:00,42.0,30.0,-100.00,West,270,7.0,15.0,60,-99.99,,,-99.99,,2013-01-10 07:12:00,
2013-01-10 02:22:00,42.0,28.0,-100.00,West,275,6.0,14.0,57,-99.99,,,-99.99,,2013-01-10 07:22:00,
2013-01-10 02:32:00,42.0,28.0,-100.00,West,275,6.0,14.0,57,-99.99,,,-99.99,,2013-01-10 07:32:00,
2013-01-10 03:02:00,44.0,26.0,-100.00,West,280,8.0,23.0,48,-99.99,,,-99.99,,2013-01-10 08:02:00,
2013-01-10 03:12:00,44.0,26.0,-100.00,WNW,285,6.0,18.0,49,-99.99,,,-99.99,,2013-01-10 08:12:00,
2013-01-10 03:22:00,44.0,26.0,-100.00,NNW,335,13.0,33.0,49,-99.99,,,-99.99,,2013-01-10 08:22:00,
2013-01-10 03:32:00,43.0,26.0,-100.00,NW,305,9.0,24.0,50,-99.99,,,-99.99,,2013-01-10 08:32:00,
2013-01-10 04:22:00,42.0,25.0,-100.00,WNW,300,8.0,16.0,52,-99.99,,,-99.99,,2013-01-10 09:22:00,
2013-01-10 04:32:00,42.0,24.0,-100.00,NNW,340,12.0,29.0,49,-99.99,,,-99.99,,2013-01-10 09:32:00,
2013-01-10 04:42:00,42.0,25.0,-100.00,NW,310,8.0,29.0,51,-99.99,,,-99.99,,2013-01-10 09:42:00,
2013-01-10 04:52:00,42.0,25.0,-100.00,NW,310,9.0,23.0,51,-99.99,,,-99.99,,2013-01-10 09:52:00,
2013-01-10 05:03:00,42.0,25.0,-100.00,West,275,13.0,32.0,50,-99.99,,,-99.99,,2013-01-10 10:03:00,
2013-01-10 05:12:00,42.0,25.0,-100.00,WNW,300,9.0,24.0,50,-99.99,,,-99.99,,2013-01-10 10:12:00,
2013-01-10 05:22:00,42.0,25.0,-100.00,WNW,300,9.0,24.0,50,-99.99,,,-99.99,,2013-01-10 10:22:00,
2013-01-10 05:32:00,41.0,24.0,-100.00,NNW,345,7.0,25.0,50,-99.99,,,-99.99,,2013-01-10 10:32:00,
2013-01-10 05:42:00,41.0,24.0,-100.00,NW,305,5.0,25.0,51,-99.99,,,-99.99,,2013-01-10 10:42:00,
2013-01-10 06:43:00,40.0,25.0,-100.00,WNW,290,7.0,10.0,53,-99.99,,,-99.99,,2013-01-10 11:43:00,
2013-01-10 06:52:00,40.0,25.0,-100.00,WNW,290,5.0,12.0,54,-99.99,,,-99.99,,2013-01-10 11:52:00,
2013-01-10 07:03:00,40.0,25.0,-100.00,WNW,290,6.0,12.0,54,-99.99,,,-99.99,,2013-01-10 12:03:00,
2013-01-10 07:12:00,40.0,25.0,-100.00,West,270,6.0,13.0,55,-99.99,,,-99.99,,2013-01-10 12:12:00,
2013-01-10 07:22:00,40.0,24.0,-100.00,West,280,5.0,14.0,54,-99.99,,,-99.99,,2013-01-10 12:22:00,
2013-01-10 07:33:00,40.0,24.0,-100.00,WNW,295,6.0,9.0,54,-99.99,,,-99.99,,2013-01-10 12:33:00,
2013-01-10 07:43:00,39.0,24.0,-100.00,WNW,285,7.0,14.0,55,-99.99,,,-99.99,,2013-01-10 12:43:00,
2013-01-10 07:53:00,39.0,24.0,-100.00,West,280,5.0,14.0,55,-99.99,,,-99.99,,2013-01-10 12:53:00,
2013-01-10 08:02:00,39.0,24.0,-100.00,WNW,295,5.0,14.0,55,-99.99,,,-99.99,,2013-01-10 13:02:00,
2013-01-10 08:32:00,39.0,24.0,-100.00,West,265,6.0,12.0,55,-99.99,,,-99.99,,2013-01-10 13:32:00,
2013-01-10 08:42:00,39.0,24.0,-100.00,West,280,6.0,15.0,55,-99.99,,,-99.99,,2013-01-10 13:42:00,
2013-01-10 11:33:00,45.0,23.0,-100.00,WNW,300,6.0,20.0,42,-99.99,,,-99.99,,2013-01-10 16:33:00,
2013-01-10 12:33:00,45.0,22.0,-100.00,WNW,295,7.0,17.0,40,-99.99,,,-99.99,,2013-01-10 17:33:00,
2013-01-10 12:43:00,46.0,22.0,-100.00,North,0,7.0,24.0,39,-99.99,,,-99.99,,2013-01-10 17:43:00,
2013-01-10 12:53:00,45.0,23.0,-100.00,WNW,300,9.0,18.0,40,-99.99,,,-99.99,,2013-01-10 17:53:00,
2013-01-10 13:03:00,46.0,22.0,-100.00,NNW,340,6.0,17.0,38,-99.99,,,-99.99,,2013-01-10 18:03:00,
2013-01-10 13:12:00,47.0,23.0,-100.00,North,10,5.0,14.0,38,-99.99,,,-99.99,,2013-01-10 18:12:00,
2013-01-10 13:23:00,47.0,23.0,-100.00,WNW,290,6.0,18.0,39,-99.99,,,-99.99,,2013-01-10 18:23:00,
2013-01-10 13:33:00,47.0,23.0,-100.00,West,280,7.0,17.0,39,-99.99,,,-99.99,,2013-01-10 18:33:00,
2013-01-10 13:43:00,47.0,22.0,-100.00,NW,325,8.0,20.0,37,-99.99,,,-99.99,,2013-01-10 18:43:00,
2013-01-10 13:53:00,47.0,23.0,-100.00,West,275,5.0,17.0,38,-99.99,,,-99.99,,2013-01-10 18:53:00,
2013-01-10 14:03:00,48.0,23.0,-100.00,WNW,295,6.0,17.0,38,-99.99,,,-99.99,,2013-01-10 19:03:00,
2013-01-10 14:13:00,47.0,23.0,-100.00,NW,310,10.0,22.0,38,-99.99,,,-99.99,,2013-01-10 19:13:00,
2013-01-10 14:23:00,47.0,23.0,-100.00,WNW,300,7.0,16.0,39,-99.99,,,-99.99,,2013-01-10 19:23:00,
2013-01-10 14:33:00,47.0,22.0,-100.00,NNW,340,8.0,17.0,37,-99.99,,,-99.99,,2013-01-10 19:33:00,
2013-01-10 14:43:00,47.0,23.0,-100.00,North,0,10.0,20.0,38,-99.99,,,-99.99,,2013-01-10 19:43:00,
2013-01-10 14:53:00,47.0,23.0,-100.00,North,355,8.0,16.0,37,-99.99,,,-99.99,,2013-01-10 19:53:00,
2013-01-10 15:33:00,47.0,23.0,-100.00,North,10,3.0,13.0,37,-99.99,,,-99.99,,2013-01-10 20:33:00,
2013-01-10 16:30:00,44.0,23.0,-100.00,West,275,3.0,6.0,42,-99.99,,,-99.99,,2013-01-10 21:30:00,
2013-01-10 16:33:00,46.0,22.0,-100.00,NNW,330,3.0,13.0,39,-99.99,,,-99.99,,2013-01-10 21:33:00,
2013-01-10 16:43:00,46.0,22.0,-100.00,NNW,330,6.0,13.0,38,-99.99,,,-99.99,,2013-01-10 21:43:00,
2013-01-10 16:53:00,45.0,22.0,-100.00,WNW,290,2.0,9.0,40,-99.99,,,-99.99,,2013-01-10 21:53:00,
2013-01-10 17:04:00,45.0,22.0,-100.00,WNW,290,2.0,9.0,40,-99.99,,,-99.99,,2013-01-10 22:04:00,
2013-01-10 17:13:00,44.0,23.0,-100.00,West,275,3.0,6.0,42,-99.99,,,-99.99,,2013-01-10 22:13:00,
2013-01-10 17:27:00,44.0,23.0,-100.00,West,275,3.0,6.0,42,-99.99,,,-99.99,,2013-01-10 22:27:00,
2013-01-10 17:44:00,41.0,24.0,-100.00,South,170,1.0,6.0,50,-99.99,,,-99.99,,2013-01-10 22:44:00,
2013-01-10 18:03:00,41.0,23.0,-100.00,NNW,340,5.0,8.0,48,-99.99,,,-99.99,,2013-01-10 23:03:00,
2013-01-10 18:13:00,41.0,23.0,-100.00,West,270,2.0,7.0,48,-99.99,,,-99.99,,2013-01-10 23:13:00,
2013-01-10 18:23:00,39.0,23.0,-100.00,WSW,255,5.0,7.0,52,-99.99,,,-99.99,,2013-01-10 23:23:00,
2013-01-10 18:33:00,41.0,23.0,-100.00,West,265,2.0,9.0,49,-99.99,,,-99.99,,2013-01-10 23:33:00,
2013-01-10 18:43:00,39.0,23.0,-100.00,NNW,340,2.0,6.0,52,-99.99,,,-99.99,,2013-01-10 23:43:00,
2013-01-10 18:53:00,39.0,23.0,-100.00,West,260,1.0,6.0,53,-99.99,,,-99.99,,2013-01-10 23:53:00,
2013-01-10 19:03:00,38.0,23.0,-100.00,West,270,6.0,8.0,55,-99.99,,,-99.99,,2013-01-11 00:03:00,
2013-01-10 19:13:00,38.0,23.0,-100.00,WSW,250,2.0,5.0,54,-99.99,,,-99.99,,2013-01-11 00:13:00,
2013-01-10 19:23:00,37.0,23.0,-100.00,West,265,2.0,6.0,57,-99.99,,,-99.99,,2013-01-11 00:23:00,
2013-01-10 19:43:00,36.0,23.0,-100.00,NNE,20,2.0,6.0,58,-99.99,,,-99.99,,2013-01-11 00:43:00,
2013-01-10 19:52:00,35.0,23.0,-100.00,ESE,105,3.0,6.0,62,-99.99,,,-99.99,,2013-01-11 00:52:00,
2013-01-10 20:03:00,36.0,23.0,-100.00,NW,325,2.0,8.0,59,-99.99,,,-99.99,,2013-01-11 01:03:00,
2013-01-10 20:13:00,38.0,23.0,-100.00,North,5,2.0,8.0,55,-99.99,,,-99.99,,2013-01-11 01:13:00,
2013-01-10 20:34:00,37.0,23.0,-100.00,ENE,60,2.0,7.0,56,-99.99,,,-99.99,,2013-01-11 01:34:00,
2013-01-10 21:33:00,37.0,22.0,-100.00,NNW,345,2.0,6.0,56,-99.99,,,-99.99,,2013-01-11 02:33:00,
2013-01-10 21:43:00,35.0,23.0,-100.00,East,95,2.0,6.0,61,-99.99,,,-99.99,,2013-01-11 02:43:00,
2013-01-10 21:53:00,36.0,23.0,-100.00,NE,40,2.0,3.0,59,-99.99,,,-99.99,,2013-01-11 02:53:00,
2013-01-10 22:03:00,33.0,23.0,-100.00,SE,140,1.0,7.0,68,-99.99,,,-99.99,,2013-01-11 03:03:00,
2013-01-10 22:13:00,34.0,23.0,-100.00,West,265,5.0,6.0,63,-99.99,,,-99.99,,2013-01-11 03:13:00,
2013-01-10 22:23:00,33.0,23.0,-100.00,West,260,2.0,6.0,65,-99.99,,,-99.99,,2013-01-11 03:23:00,
2013-01-10 22:33:00,32.0,23.0,-100.00,SE,145,1.0,6.0,68,-99.99,,,-99.99,,2013-01-11 03:33:00,
2013-01-10 22:43:00,31.0,23.0,-100.00,SE,130,1.0,6.0,70,-99.99,,,-99.99,,2013-01-11 03:43:00,
2013-01-10 22:53:00,31.0,22.0,-100.00,West,265,2.0,5.0,71,-99.99,,,-99.99,,2013-01-11 03:53:00,
2013-01-10 23:02:00,31.0,22.0,-100.00,West,265,2.0,5.0,71,-99.99,,,-99.99,,2013-01-11 04:02:00,
2013-01-10 23:12:00,30.0,22.0,-100.00,SSW,200,1.0,2.0,71,-99.99,,,-99.99,,2013-01-11 04:12:00,
2013-01-10 23:23:00,30.0,22.0,-100.00,SSW,200,1.0,2.0,71,-99.99,,,-99.99,,2013-01-11 04:23:00,
2013-01-10 23:33:00,31.0,23.0,-100.00,WNW,285,2.0,5.0,73,-99.99,,,-99.99,,2013-01-11 04:33:00,
2013-01-10 23:43:00,30.0,22.0,-100.00,SW,230,1.0,5.0,72,-99.99,,,-99.99,,2013-01-11 04:43:00,
2013-01-10 23:52:00,31.0,23.0,-100.00,NE,35,2.0,3.0,72,-99.99,,,-99.99,,2013-01-11 04:52:00,